• In Hungary
  • List of Countries
  • For 7 days
  • Water Temperature
  • Satellite Maps
  • Weather Map
  • News
  • Weather Widgets
  • user-avatar
    Login

    Hourly Weather Santo Antonio do Sudoeste

    Today, 13 November, Tuesday

    Time Temperature Precipitation Wind Pressure Humidity
    00:00 +25°C° 0 mm 2 mps 711 mmHg 71%
    01:00 +25°C° 0 mm 2 mps 711 mmHg 73%
    02:00 +25°C° 0 mm 2 mps 711 mmHg 75%
    03:00 +25°C° 0 mm 2 mps 711 mmHg 76%
    04:00 +25°C° 0 mm 2 mps 711 mmHg 77%
    05:00 +25°C° 0 mm 2 mps 712 mmHg 78%
    06:00 +26°C° 0 mm 3 mps 712 mmHg 72%
    07:00 +28°C° 0 mm 3 mps 713 mmHg 66%
    08:00 +30°C° 0 mm 4 mps 714 mmHg 60%
    09:00 +33°C° 0.1 mm 4 mps 714 mmHg 56%
    10:00 +34°C° 0.1 mm 4 mps 713 mmHg 51%
    11:00 +36°C° 0.1 mm 3 mps 713 mmHg 46%
    12:00 +36°C° 0 mm 3 mps 713 mmHg 44%
    13:00 +37°C° 0 mm 3 mps 712 mmHg 42%
    14:00 +37°C° 0 mm 3 mps 712 mmHg 41%
    15:00 +36°C° 0 mm 3 mps 711 mmHg 45%
    16:00 +35°C° 0 mm 2 mps 711 mmHg 50%
    17:00 +34°C° 0 mm 2 mps 710 mmHg 55%
    18:00 +31°C° 0 mm 2 mps 710 mmHg 59%
    19:00 +30°C° 0 mm 2 mps 710 mmHg 63%
    20:00 +28°C° 0 mm 2 mps 710 mmHg 67%
    21:00 +28°C° 0 mm 2 mps 711 mmHg 69%
    22:00 +27°C° 0 mm 2 mps 711 mmHg 70%
    23:00 +27°C° 0 mm 2 mps 711 mmHg 72%

    Tomorrow, 14 November, Wednesday

    Time Temperature Precipitation Wind Pressure Humidity
    00:00 +27°C° 0 mm 2 mps 710 mmHg 73%
    01:00 +26°C° 0 mm 2 mps 710 mmHg 75%
    02:00 +26°C° 0 mm 2 mps 710 mmHg 76%
    03:00 +25°C° 1.2 mm 1 mps 710 mmHg 81%
    04:00 +24°C° 1.2 mm 1 mps 710 mmHg 86%
    05:00 +24°C° 1.2 mm 1 mps 710 mmHg 91%
    06:00 +24°C° 5 mm 1 mps 711 mmHg 93%
    07:00 +24°C° 5 mm 1 mps 712 mmHg 95%
    08:00 +24°C° 5 mm 1 mps 712 mmHg 96%
    09:00 +24°C° 3 mm 1 mps 712 mmHg 96%
    10:00 +24°C° 3 mm 1 mps 713 mmHg 96%
    11:00 +24°C° 3 mm 1 mps 713 mmHg 96%
    12:00 +25°C° 0.1 mm 1 mps 712 mmHg 91%
    13:00 +26°C° 0.1 mm 1 mps 712 mmHg 85%
    14:00 +27°C° 0.1 mm 1 mps 712 mmHg 80%
    15:00 +27°C° 0.1 mm 1 mps 712 mmHg 81%
    16:00 +26°C° 0.1 mm 1 mps 711 mmHg 83%
    17:00 +26°C° 0.1 mm 1 mps 711 mmHg 84%
    18:00 +25°C° 0 mm 1 mps 712 mmHg 86%
    19:00 +24°C° 0 mm 1 mps 712 mmHg 89%
    20:00 +23°C° 0 mm 1 mps 712 mmHg 91%
    21:00 +21°C° 0 mm 2 mps 712 mmHg 88%
    22:00 +21°C° 0 mm 2 mps 712 mmHg 86%
    23:00 +20°C° 0 mm 2 mps 713 mmHg 84%

    Day after tomorrow, 15 November, Thursday

    Time Temperature Precipitation Wind Pressure Humidity
    00:00 +20°C° 0 mm 2 mps 712 mmHg 83%
    01:00 +19°C° 0 mm 2 mps 712 mmHg 81%
    02:00 +19°C° 0 mm 2 mps 711 mmHg 80%
    03:00 +18°C° 0 mm 2 mps 711 mmHg 81%
    04:00 +18°C° 0 mm 2 mps 712 mmHg 82%
    05:00 +18°C° 0 mm 2 mps 712 mmHg 82%
    06:00 +20°C° 0 mm 2 mps 712 mmHg 75%
    07:00 +23°C° 0 mm 2 mps 713 mmHg 67%
    08:00 +25°C° 0 mm 2 mps 713 mmHg 59%
    09:00 +28°C° 0 mm 2 mps 713 mmHg 53%
    10:00 +30°C° 0 mm 1 mps 713 mmHg 48%
    11:00 +32°C° 0 mm 1 mps 713 mmHg 42%
    12:00 +32°C° 0 mm 1 mps 712 mmHg 40%
    13:00 +34°C° 0 mm 2 mps 712 mmHg 38%
    14:00 +34°C° 0 mm 2 mps 711 mmHg 36%
    15:00 +32°C° 0 mm 2 mps 711 mmHg 42%
    16:00 +30°C° 0 mm 2 mps 711 mmHg 47%
    17:00 +29°C° 0 mm 2 mps 711 mmHg 53%
    18:00 +27°C° 0 mm 2 mps 711 mmHg 57%
    19:00 +24°C° 0 mm 2 mps 711 mmHg 62%
    20:00 +22°C° 0 mm 1 mps 712 mmHg 67%
    21:00 +22°C° 0 mm 1 mps 712 mmHg 67%
    22:00 +22°C° 0 mm 1 mps 712 mmHg 68%
    23:00 +21°C° 0 mm 1 mps 712 mmHg 69%

    16 November, Friday

    Time Temperature Precipitation Wind Pressure Humidity
    00:00 +21°C° 0 mm 1 mps 712 mmHg 74%
    01:00 +21°C° 0 mm 1 mps 711 mmHg 78%
    02:00 +21°C° 0 mm 1 mps 711 mmHg 83%
    03:00 +21°C° 0 mm 1 mps 712 mmHg 86%
    04:00 +21°C° 0 mm 1 mps 712 mmHg 89%
    05:00 +22°C° 0 mm 1 mps 712 mmHg 92%
    06:00 +24°C° 0.2 mm 2 mps 713 mmHg 87%
    07:00 +26°C° 0.2 mm 2 mps 714 mmHg 82%
    08:00 +28°C° 0.2 mm 2 mps 715 mmHg 78%
    09:00 +29°C° 0.7 mm 1 mps 714 mmHg 70%
    10:00 +31°C° 0.7 mm 1 mps 714 mmHg 63%
    11:00 +33°C° 0.7 mm 1 mps 714 mmHg 56%
    12:00 +33°C° 0.2 mm 1 mps 713 mmHg 55%
    13:00 +33°C° 0.2 mm 1 mps 713 mmHg 54%
    14:00 +33°C° 0.2 mm 1 mps 712 mmHg 53%
    15:00 +31°C° 0.9 mm 1 mps 712 mmHg 63%
    16:00 +30°C° 0.9 mm 1 mps 712 mmHg 73%
    17:00 +28°C° 0.9 mm 1 mps 712 mmHg 84%
    18:00 +26°C° 0.1 mm 1 mps 712 mmHg 87%
    19:00 +25°C° 0.1 mm 1 mps 712 mmHg 91%
    20:00 +24°C° 0.1 mm 1 mps 712 mmHg 94%
    21:00 +23°C° 0 mm 1 mps 712 mmHg 95%
    22:00 +23°C° 0 mm 1 mps 712 mmHg 95%
    23:00 +23°C° 0 mm 1 mps 712 mmHg 95%

    17 November, Saturday

    Time Temperature Precipitation Wind Pressure Humidity
    00:00 +23°C° 0 mm 2 mps 712 mmHg 95%
    01:00 +23°C° 0 mm 2 mps 712 mmHg 94%
    02:00 +23°C° 0 mm 2 mps 712 mmHg 94%
    03:00 +21°C° 0 mm 2 mps 712 mmHg 93%
    04:00 +21°C° 0 mm 3 mps 712 mmHg 92%
    05:00 +21°C° 0 mm 3 mps 712 mmHg 91%
    06:00 +24°C° 0 mm 3 mps 713 mmHg 82%
    07:00 +25°C° 0 mm 3 mps 713 mmHg 74%
    08:00 +27°C° 0 mm 3 mps 714 mmHg 65%
    09:00 +29°C° 0 mm 3 mps 713 mmHg 60%
    10:00 +31°C° 0 mm 3 mps 713 mmHg 55%
    11:00 +34°C° 0 mm 3 mps 713 mmHg 50%
    12:00 +34°C° 0 mm 3 mps 712 mmHg 50%
    13:00 +34°C° 0 mm 2 mps 712 mmHg 50%
    14:00 +34°C° 0 mm 2 mps 711 mmHg 50%
    15:00 +32°C° 0.1 mm 2 mps 711 mmHg 55%
    16:00 +31°C° 0.1 mm 2 mps 711 mmHg 61%
    17:00 +30°C° 0.1 mm 1 mps 711 mmHg 67%
    18:00 +28°C° 0 mm 1 mps 711 mmHg 72%
    19:00 +27°C° 0 mm 1 mps 711 mmHg 78%
    20:00 +25°C° 0 mm 1 mps 711 mmHg 83%
    21:00 +25°C° 0.4 mm 1 mps 711 mmHg 86%
    22:00 +25°C° 0.4 mm 1 mps 711 mmHg 88%
    23:00 +24°C° 0.4 mm 1 mps 711 mmHg 90%

    18 November, Sunday

    Time Temperature Precipitation Wind Pressure Humidity
    00:00 +24°C° 2.3 mm 1 mps 711 mmHg 92%
    01:00 +23°C° 2.3 mm 1 mps 710 mmHg 94%
    02:00 +23°C° 2.3 mm 1 mps 710 mmHg 96%
    03:00 +23°C° 6 mm 1 mps 710 mmHg 96%
    04:00 +23°C° 6 mm 1 mps 711 mmHg 96%
    05:00 +23°C° 6 mm 1 mps 711 mmHg 96%
    06:00 +23°C° 0.6 mm 1 mps 712 mmHg 96%
    07:00 +23°C° 0.6 mm 1 mps 712 mmHg 95%
    08:00 +24°C° 0.6 mm 1 mps 713 mmHg 94%
    09:00 +25°C° 1 mm 2 mps 712 mmHg 92%
    10:00 +25°C° 1 mm 2 mps 712 mmHg 89%
    11:00 +26°C° 1 mm 2 mps 712 mmHg 86%
    12:00 +26°C° 1.2 mm 2 mps 712 mmHg 87%
    13:00 +26°C° 1.2 mm 1 mps 711 mmHg 88%
    14:00 +26°C° 1.2 mm 1 mps 710 mmHg 89%
    15:00 +26°C° 0.3 mm 1 mps 710 mmHg 90%
    16:00 +25°C° 0.3 mm 1 mps 710 mmHg 91%
    17:00 +23°C° 0.3 mm 0 mps 710 mmHg 92%
    18:00 +22°C° 0.1 mm 0 mps 711 mmHg 94%
    19:00 +23°C° 0.1 mm 1 mps 711 mmHg 95%
    20:00 +23°C° 0.1 mm 1 mps 711 mmHg 97%
    21:00 +22°C° 0 mm 1 mps 711 mmHg 97%
    22:00 +22°C° 0 mm 1 mps 711 mmHg 97%
    23:00 +21°C° 0 mm 1 mps 711 mmHg 97%
    Show more